START_TIME,STEP,MOV.,M6,t_acc.,M7,t_acc.,M19,t_acc.,H36,t_acc.
1979-08-01 12:00:25.990 ,0,0,0.,12.0,0.,12.0,0.,12.0,0.,12.0
1979-08-01 12:00:37.990 ,0,0,0.,12.0,0.,12.0,0.,12.0,0.,12.0
1979-08-01 12:01:37.990 ,0,0,0.,12.0,0.,12.0,0.,12.0,0.,12.0
1979-08-01 12:01:49.990 ,0,0,0.,12.0,0.,12.0,0.,12.0,0.,12.0
1979-08-01 12:02:01.990 ,0,0,0.,12.0,0.,12.0,0.,12.0,0.,12.0
1979-08-01 12:02:13.990 ,0,0,0.,12.0,0.,12.0,0.,12.0,0.,12.0
1979-08-01 12:02:25.990 ,3,1,0.,12.0,0.,12.0,0.,12.0,0.,12.0
1979-08-01 12:02:37.990 ,3,1,0.,12.0,0.,12.0,0.,12.0,0.,12.0
1979-08-01 12:02:49.990 ,3,0,0.,12.0,0.,12.0,0.,12.0,0.,12.0
1979-08-01 12:03:01.990 ,3,0,0.,12.0,0.,12.0,0.,12.0,0.,12.0
1979-08-01 12:03:13.990 ,4,1,0.,12.0,0.,12.0,0.,12.0,0.,12.0
1979-08-01 12:03:25.990 ,4,1,0.,12.0,0.,12.0,0.,12.0,0.,12.0
1979-08-01 12:03:37.990 ,4,0,0.,12.0,0.,12.0,0.,12.0,0.,12.0
1979-08-01 12:03:49.990 ,4,0,0.,12.0,0.,12.0,0.,12.0,0.,12.0
1979-08-01 12:04:01.990 ,5,1,0.,12.0,0.,12.0,0.,12.0,0.,12.0
1979-08-01 12:04:13.990 ,5,1,0.,12.0,0.,12.0,0.,12.0,0.,12.0
1979-08-01 12:04:25.990 ,5,0,0.,12.0,0.,12.0,0.,12.0,0.,12.0
1979-08-01 12:04:37.990 ,5,0,0.,12.0,0.,12.0,0.,12.0,0.,12.0
1979-08-01 12:04:49.990 ,6,1,0.,12.0,0.,12.0,0.,12.0,0.,12.0
1979-08-01 12:05:01.990 ,6,1,0.,12.0,0.,12.0,0.,12.0,0.,12.0
1979-08-01 12:05:13.990 ,6,0,0.,12.0,0.,12.0,0.,12.0,0.,12.0
1979-08-01 12:05:25.990 ,6,0,0.,12.0,0.,12.0,0.,12.0,0.,12.0
1979-08-01 12:05:37.990 ,7,1,0.,12.0,0.,12.0,0.,12.0,0.,12.0
1979-08-01 12:05:49.990 ,7,1,0.,12.0,0.,12.0,0.,12.0,0.,12.0
1979-08-01 12:06:01.990 ,7,0,0.,12.0,0.,12.0,0.,12.0,0.,12.0
1979-08-01 12:06:13.990 ,7,0,0.,12.0,0.,12.0,0.,12.0,0.,12.0
1979-08-01 12:07:13.990 ,0,0,0.,12.0,0.,12.0,0.,12.0,0.,12.0
1979-08-01 12:07:25.990 ,0,0,0.,12.0,0.,12.0,0.,12.0,0.,12.0
1979-08-01 12:07:37.990 ,0,0,0.,12.0,0.,12.0,0.,12.0,0.,12.0
1979-08-01 12:07:49.990 ,0,0,0.,12.0,0.,12.0,0.,12.0,0.,12.0
1979-08-01 12:08:01.990 ,5,1,0.,12.0,0.,12.0,0.,12.0,0.,12.0
1979-08-01 12:08:13.990 ,5,1,0.,12.0,0.,12.0,0.,12.0,0.,12.0
1979-08-01 12:08:25.990 ,5,0,0.,12.0,0.,12.0,0.,12.0,0.,12.0
1979-08-01 12:08:37.990 ,5,0,0.,12.0,0.,12.0,0.,12.0,0.,12.0
1979-08-01 12:08:49.990 ,4,1,0.,12.0,0.,12.0,0.,12.0,0.,12.0
1979-08-01 12:09:01.990 ,4,1,0.,12.0,0.,12.0,0.,12.0,0.,12.0
1979-08-01 12:09:13.990 ,4,0,0.,12.0,0.,12.0,0.,12.0,0.,12.0
1979-08-01 12:09:25.990 ,4,0,0.,12.0,0.,12.0,0.,12.0,0.,12.0
1979-08-01 12:09:37.990 ,3,1,0.,12.0,0.,12.0,0.,12.0,0.,12.0
1979-08-01 12:09:49.990 ,3,1,0.,12.0,0.,12.0,0.,12.0,0.,12.0
1979-08-01 12:10:01.990 ,3,0,0.,12.0,0.,12.0,0.,12.0,0.,12.0
1979-08-01 12:10:13.990 ,3,0,0.,12.0,0.,12.0,0.,12.0,0.,12.0
1979-08-01 12:10:25.990 ,2,1,0.,12.0,0.,12.0,0.,12.0,0.,12.0
1979-08-01 12:10:37.990 ,2,1,0.,12.0,0.,12.0,0.,12.0,0.,12.0
1979-08-01 12:10:49.990 ,2,0,0.,12.0,0.,12.0,0.,12.0,0.,12.0
1979-08-01 12:11:01.990 ,2,0,0.,12.0,0.,12.0,0.,12.0,0.,12.0
1979-08-01 12:11:13.990 ,0,0,0.,12.0,0.,12.0,0.,12.0,0.,12.0
1979-08-01 12:11:25.990 ,0,0,0.,12.0,0.,12.0,0.,12.0,0.,12.0
1979-08-01 12:11:37.990 ,0,0,0.,12.0,0.,12.0,0.,12.0,0.,12.0
1979-08-01 12:11:49.990 ,0,0,0.,12.0,0.,12.0,0.,12.0,0.,12.0
1979-08-01 12:12:01.990 ,0,1,0.,12.0,0.,12.0,0.,12.0,0.,12.0
1979-08-01 12:12:13.990 ,0,1,0.,12.0,0.,12.0,0.,12.0,0.,12.0
1979-08-01 12:12:25.990 ,0,0,0.,12.0,0.,12.0,0.,12.0,0.,12.0
1979-08-01 12:12:37.990 ,0,0,0.,12.0,0.,12.0,0.,12.0,0.,12.0
1979-08-01 12:12:49.990 ,0,1,0.,12.0,0.,12.0,0.,12.0,0.,12.0
1979-08-01 12:13:01.990 ,0,1,0.,12.0,0.,12.0,0.,12.0,0.,12.0
1979-08-01 12:13:13.990 ,0,0,0.,12.0,0.,12.0,0.,12.0,0.,12.0
1979-08-01 12:13:25.990 ,0,0,0.,12.0,0.,12.0,0.,12.0,1.,12.0
1979-08-01 12:13:37.990 ,1,1,0.,12.0,0.,12.0,0.,12.0,0.,12.0
1979-08-01 12:13:49.990 ,1,1,0.,12.0,0.,12.0,0.,12.0,0.,12.0
1979-08-01 12:14:01.990 ,1,0,0.,12.0,0.,12.0,0.,12.0,0.,12.0
1979-08-01 12:14:13.990 ,1,0,0.,12.0,0.,12.0,0.,12.0,0.,12.0
1979-08-01 12:14:25.990 ,2,1,0.,12.0,0.,12.0,0.,12.0,0.,12.0
1979-08-01 12:14:37.990 ,2,1,0.,12.0,0.,12.0,0.,12.0,0.,12.0
1979-08-01 12:14:49.990 ,2,0,0.,12.0,0.,12.0,0.,12.0,0.,12.0
1979-08-01 12:15:01.990 ,2,0,0.,12.0,0.,12.0,0.,12.0,0.,12.0
1979-08-01 12:15:13.990 ,3,1,0.,12.0,0.,12.0,0.,12.0,0.,12.0
1979-08-01 12:15:25.990 ,3,1,0.,12.0,0.,12.0,0.,12.0,0.,12.0
1979-08-01 12:15:37.990 ,3,0,0.,12.0,0.,12.0,0.,12.0,0.,12.0
1979-08-01 12:15:49.990 ,3,0,0.,12.0,0.,12.0,0.,12.0,0.,12.0
1979-08-01 12:16:01.990 ,4,1,0.,12.0,0.,12.0,0.,12.0,0.,12.0
1979-08-01 12:16:13.990 ,4,1,0.,12.0,0.,12.0,0.,12.0,0.,12.0
1979-08-01 12:16:25.990 ,4,0,0.,12.0,0.,12.0,0.,12.0,0.,12.0
1979-08-01 12:16:37.990 ,4,0,0.,12.0,0.,12.0,0.,12.0,0.,12.0
1979-08-01 12:16:49.990 ,5,1,0.,12.0,0.,12.0,0.,12.0,0.,12.0
1979-08-01 12:17:01.990 ,5,1,0.,12.0,0.,12.0,0.,12.0,0.,12.0
1979-08-01 12:17:13.990 ,5,0,0.,12.0,0.,12.0,0.,12.0,0.,12.0
1979-08-01 12:17:25.990 ,5,0,0.,12.0,0.,12.0,0.,12.0,0.,12.0
1979-08-01 12:17:37.990 ,6,1,0.,12.0,0.,12.0,0.,12.0,0.,12.0
1979-08-01 12:17:49.990 ,6,1,0.,12.0,0.,12.0,0.,12.0,0.,12.0
1979-08-01 12:18:01.990 ,6,0,0.,12.0,0.,12.0,0.,12.0,0.,12.0
1979-08-01 12:18:13.990 ,6,0,0.,12.0,0.,12.0,0.,12.0,0.,12.0
1979-08-01 12:18:25.990 ,0,0,0.,12.0,0.,12.0,0.,12.0,0.,12.0
1979-08-01 12:18:37.990 ,0,0,0.,12.0,0.,12.0,0.,12.0,0.,12.0
1979-08-01 12:18:49.990 ,0,0,1.,12.0,1.,12.0,0.,12.0,0.,12.0
1979-08-01 12:19:01.990 ,0,0,0.,12.0,1.,12.0,0.,12.0,0.,12.0
1979-08-01 12:19:13.990 ,0,0,0.,12.0,0.,12.0,0.,12.0,0.,12.0
1979-08-01 12:19:25.990 ,0,0,0.,12.0,0.,12.0,0.,12.0,0.,12.0
1979-08-01 12:19:37.990 ,0,1,0.,12.0,0.,12.0,0.,12.0,0.,12.0
1979-08-01 12:19:49.990 ,0,1,0.,12.0,0.,12.0,0.,12.0,0.,12.0
1979-08-01 12:20:01.990 ,3,1,0.,12.0,0.,12.0,0.,12.0,0.,12.0
1979-08-01 12:20:13.990 ,3,1,0.,12.0,0.,12.0,0.,12.0,0.,12.0
1979-08-01 12:20:25.990 ,7,1,0.,12.0,0.,12.0,0.,12.0,0.,12.0
1979-08-01 12:20:37.990 ,7,1,0.,12.0,0.,12.0,0.,12.0,0.,12.0
1979-08-01 12:20:49.990 ,4,1,0.,12.0,0.,12.0,0.,12.0,0.,12.0
1979-08-01 12:21:01.990 ,4,1,0.,12.0,0.,12.0,0.,12.0,0.,12.0
1979-08-01 12:21:13.990 ,0,1,0.,12.0,0.,12.0,0.,12.0,0.,12.0
1979-08-01 12:21:25.990 ,0,1,0.,12.0,0.,12.0,0.,12.0,0.,12.0
1979-08-01 12:21:37.990 ,3,1,0.,12.0,0.,12.0,0.,12.0,0.,12.0
1979-08-01 12:21:49.990 ,3,1,0.,12.0,0.,12.0,0.,12.0,0.,12.0
1979-08-01 12:22:01.990 ,0,0,0.,12.0,0.,12.0,0.,12.0,0.,12.0
1979-08-01 12:22:13.990 ,0,0,0.,12.0,0.,12.0,0.,12.0,0.,12.0
1979-08-01 12:22:25.990 ,4,1,0.,12.0,0.,12.0,0.,12.0,0.,12.0
1979-08-01 12:22:37.990 ,4,1,0.,12.0,0.,12.0,0.,12.0,0.,12.0
1979-08-01 12:22:49.990 ,0,1,0.,12.0,0.,12.0,0.,12.0,0.,12.0
1979-08-01 12:23:01.990 ,0,1,0.,12.0,0.,12.0,0.,12.0,0.,12.0
1979-08-01 12:23:13.990 ,3,1,0.,12.0,0.,12.0,0.,12.0,0.,12.0
1979-08-01 12:23:25.990 ,3,1,0.,12.0,0.,12.0,0.,12.0,0.,12.0
1979-08-01 12:23:37.990 ,7,1,0.,12.0,0.,12.0,0.,12.0,0.,12.0
1979-08-01 12:23:49.990 ,7,1,0.,12.0,0.,12.0,0.,12.0,0.,12.0
1979-08-01 12:24:01.990 ,4,1,0.,12.0,0.,12.0,0.,12.0,0.,12.0
1979-08-01 12:24:13.990 ,4,1,0.,12.0,0.,12.0,0.,12.0,0.,12.0
1979-08-01 12:24:25.990 ,0,1,0.,12.0,0.,12.0,0.,12.0,0.,12.0
1979-08-01 12:24:37.990 ,0,1,0.,12.0,0.,12.0,0.,12.0,0.,12.0
1979-08-01 12:24:49.990 ,3,1,0.,12.0,0.,12.0,0.,12.0,0.,12.0
1979-08-01 12:25:01.990 ,3,1,0.,12.0,0.,12.0,0.,12.0,0.,12.0
1979-08-01 12:25:13.990 ,7,1,0.,12.0,0.,12.0,0.,12.0,0.,12.0
1979-08-01 12:25:25.990 ,7,1,0.,12.0,0.,12.0,0.,12.0,0.,12.0
1979-08-01 12:25:37.990 ,4,1,0.,12.0,0.,12.0,0.,12.0,0.,12.0
1979-08-01 12:25:49.990 ,4,1,0.,12.0,0.,12.0,0.,12.0,0.,12.0
1979-08-01 12:26:01.990 ,0,1,0.,12.0,0.,12.0,0.,12.0,0.,12.0
1979-08-01 12:26:13.990 ,0,1,0.,12.0,0.,12.0,0.,12.0,0.,12.0
1979-08-01 12:27:13.990 ,0,0,0.,12.0,0.,12.0,0.,12.0,0.,12.0
1979-08-01 12:27:25.990 ,0,0,0.,12.0,0.,12.0,0.,12.0,0.,12.0
1979-08-01 12:27:37.990 ,0,1,0.,12.0,0.,12.0,0.,12.0,0.,12.0
1979-08-01 12:27:49.990 ,0,1,0.,12.0,0.,12.0,0.,12.0,0.,12.0
1979-08-01 12:28:01.990 ,3,1,0.,12.0,0.,12.0,0.,12.0,0.,12.0
1979-08-01 12:28:13.990 ,3,1,0.,12.0,0.,12.0,0.,12.0,0.,12.0
1979-08-01 12:28:25.990 ,7,1,0.,12.0,0.,12.0,0.,12.0,0.,12.0
1979-08-01 12:28:37.990 ,7,1,0.,12.0,0.,12.0,0.,12.0,0.,12.0
1979-08-01 12:28:49.990 ,4,1,0.,12.0,0.,12.0,0.,12.0,0.,12.0
1979-08-01 12:29:01.990 ,4,1,0.,12.0,0.,12.0,0.,12.0,0.,12.0
1979-08-01 12:29:13.990 ,0,1,0.,12.0,0.,12.0,0.,12.0,0.,12.0
1979-08-01 12:29:25.990 ,0,1,0.,12.0,0.,12.0,0.,12.0,0.,12.0
1979-08-01 12:29:37.990 ,0,0,0.,12.0,0.,12.0,0.,12.0,0.,12.0
1979-08-01 12:29:49.990 ,0,0,0.,12.0,0.,12.0,0.,12.0,0.,12.0
1979-08-01 12:30:01.990 ,0,0,0.,12.0,0.,12.0,0.,12.0,0.,12.0
1979-08-01 12:30:13.990 ,0,0,0.,12.0,0.,12.0,0.,12.0,0.,12.0
1979-08-01 12:30:25.990 ,5,1,0.,12.0,0.,12.0,0.,12.0,0.,12.0
1979-08-01 12:30:37.990 ,5,1,0.,12.0,0.,12.0,0.,12.0,0.,12.0
1979-08-01 12:30:49.990 ,5,0,0.,12.0,0.,12.0,0.,12.0,0.,12.0
1979-08-01 12:31:01.990 ,5,0,0.,12.0,0.,12.0,0.,12.0,0.,12.0
1979-08-01 12:31:13.990 ,4,1,0.,12.0,0.,12.0,0.,12.0,0.,12.0
1979-08-01 12:31:25.990 ,4,1,0.,12.0,0.,12.0,0.,12.0,0.,12.0
1979-08-01 12:31:37.990 ,4,0,0.,12.0,0.,12.0,0.,12.0,0.,12.0
1979-08-01 12:31:49.990 ,4,0,0.,12.0,0.,12.0,0.,12.0,0.,12.0
1979-08-01 12:32:01.990 ,3,1,0.,12.0,0.,12.0,0.,12.0,0.,12.0
1979-08-01 12:32:13.990 ,3,1,0.,12.0,0.,12.0,0.,12.0,0.,12.0
1979-08-01 12:32:25.990 ,3,0,0.,12.0,0.,12.0,0.,12.0,0.,12.0
1979-08-01 12:32:37.990 ,3,0,0.,12.0,0.,12.0,0.,12.0,0.,12.0
1979-08-01 12:32:49.990 ,2,1,0.,12.0,0.,12.0,0.,12.0,0.,12.0
1979-08-01 12:33:01.990 ,2,1,0.,12.0,0.,12.0,0.,12.0,0.,12.0
1979-08-01 12:33:13.990 ,0,0,0.,12.0,0.,12.0,0.,12.0,0.,12.0
1979-08-01 12:33:25.990 ,0,0,,0,,0,,0,,0
1979-08-01 12:33:43.990 ,0,0,,0,,0,,0,,0
1979-08-01 12:33:55.990 ,0,0,0.,12.0,0.,12.0,0.,12.0,0.,12.0
1979-08-01 12:34:01.990 ,0,0,0.,12.0,0.,12.0,0.,12.0,0.,12.0
1979-08-01 12:34:13.990 ,0,0,0.,12.0,0.,12.0,0.,12.0,0.,12.0
1979-08-01 12:34:25.990 ,0,1,0.,12.0,0.,12.0,0.,12.0,0.,12.0
1979-08-01 12:34:37.990 ,0,1,0.,12.0,0.,12.0,0.,12.0,0.,12.0
1979-08-01 12:34:49.990 ,0,0,0.,12.0,0.,12.0,0.,12.0,0.,12.0
1979-08-01 12:35:01.990 ,0,0,0.,12.0,0.,12.0,0.,12.0,0.,12.0
1979-08-01 12:35:13.990 ,0,1,0.,12.0,0.,12.0,0.,12.0,0.,12.0
1979-08-01 12:35:25.990 ,0,1,0.,12.0,0.,12.0,0.,12.0,0.,12.0
1979-08-01 12:35:37.990 ,0,0,0.,12.0,0.,12.0,0.,12.0,0.,12.0
1979-08-01 12:35:49.990 ,0,0,,0,,0,,0,,0
1979-08-01 12:36:01.990 ,1,1,0.,12.0,0.,12.0,0.,12.0,0.,12.0
1979-08-01 12:36:13.990 ,1,1,0.,12.0,0.,12.0,0.,12.0,0.,12.0
1979-08-01 12:36:25.990 ,1,0,0.,12.0,0.,12.0,0.,12.0,0.,12.0
1979-08-01 12:36:37.990 ,1,0,0.,12.0,0.,12.0,0.,12.0,0.,12.0
1979-08-01 12:36:49.990 ,2,1,0.,12.0,0.,12.0,0.,12.0,0.,12.0
1979-08-01 12:37:01.990 ,2,1,0.,12.0,0.,12.0,0.,12.0,0.,12.0
1979-08-01 12:37:13.990 ,2,0,0.,12.0,0.,12.0,0.,12.0,0.,12.0
1979-08-01 12:37:25.990 ,2,0,0.,12.0,0.,12.0,0.,12.0,0.,12.0
1979-08-01 12:37:37.990 ,3,1,0.,12.0,0.,12.0,0.,12.0,0.,12.0
1979-08-01 12:37:49.990 ,3,1,0.,12.0,0.,12.0,0.,12.0,0.,12.0
1979-08-01 12:38:01.990 ,3,0,0.,12.0,0.,12.0,0.,12.0,0.,12.0
1979-08-01 12:38:13.990 ,3,0,0.,12.0,0.,12.0,0.,12.0,1.,12.0
1979-08-01 12:38:25.990 ,4,1,0.,12.0,0.,12.0,0.,12.0,0.,12.0
1979-08-01 12:38:37.990 ,4,1,0.,12.0,0.,12.0,0.,12.0,0.,12.0
1979-08-01 12:38:49.990 ,4,0,1.,12.0,0.,12.0,1.,12.0,0.,12.0
1979-08-01 12:39:01.990 ,4,0,0.,12.0,0.,12.0,0.,12.0,0.,12.0
1979-08-01 12:39:13.990 ,5,1,0.,12.0,0.,12.0,0.,12.0,0.,12.0
1979-08-01 12:39:25.990 ,5,1,0.,12.0,0.,12.0,0.,12.0,0.,12.0
1979-08-01 12:39:37.990 ,5,0,0.,12.0,0.,12.0,0.,12.0,0.,12.0
1979-08-01 12:39:49.990 ,5,0,0.,12.0,0.,12.0,0.,12.0,0.,12.0
1979-08-01 12:40:01.990 ,6,1,0.,12.0,0.,12.0,0.,12.0,0.,12.0
1979-08-01 12:40:13.990 ,6,1,0.,12.0,0.,12.0,0.,12.0,0.,12.0
1979-08-01 12:40:25.990 ,6,0,0.,12.0,0.,12.0,0.,12.0,0.,12.0
1979-08-01 12:40:37.990 ,6,0,0.,12.0,0.,12.0,0.,12.0,0.,12.0
1979-08-01 12:40:49.990 ,7,1,0.,12.0,0.,12.0,0.,12.0,0.,12.0
1979-08-01 12:41:01.990 ,7,1,0.,12.0,0.,12.0,0.,12.0,0.,12.0
1979-08-01 12:41:13.990 ,7,0,0.,12.0,0.,12.0,0.,12.0,0.,12.0
1979-08-01 12:41:25.990 ,7,0,0.,12.0,0.,12.0,0.,12.0,0.,12.0
1979-08-01 12:41:37.990 ,7,1,0.,12.0,0.,12.0,0.,12.0,0.,12.0
1979-08-01 12:41:49.990 ,7,1,0.,12.0,0.,12.0,0.,12.0,0.,12.0
1979-08-01 12:42:01.990 ,7,0,0.,12.0,0.,12.0,0.,12.0,0.,12.0
1979-08-01 12:42:13.990 ,7,0,0.,12.0,0.,12.0,0.,12.0,0.,12.0
1979-08-01 12:42:25.990 ,6,1,0.,12.0,0.,12.0,0.,12.0,0.,12.0
1979-08-01 12:42:37.990 ,6,1,0.,12.0,0.,12.0,0.,12.0,1.,12.0
1979-08-01 12:42:49.990 ,6,0,0.,12.0,0.,12.0,0.,12.0,0.,12.0
1979-08-01 12:43:01.990 ,6,0,0.,12.0,0.,12.0,0.,12.0,0.,12.0
1979-08-01 12:55:13.990 ,0,0,0.,12.0,0.,12.0,0.,12.0,0.,12.0
1979-08-01 12:55:25.990 ,0,0,0.,12.0,0.,12.0,0.,12.0,0.,12.0
1979-08-01 12:55:37.990 ,0,0,0.,12.0,0.,12.0,0.,12.0,0.,12.0
1979-08-01 12:55:49.990 ,0,0,0.,12.0,0.,12.0,0.,12.0,0.,12.0
1979-08-01 12:56:01.990 ,5,1,0.,12.0,0.,12.0,0.,12.0,0.,12.0
1979-08-01 12:56:13.990 ,5,1,0.,12.0,0.,12.0,0.,12.0,0.,12.0
1979-08-01 12:56:25.990 ,5,0,0.,12.0,0.,12.0,0.,12.0,0.,12.0
1979-08-01 12:56:37.990 ,5,0,0.,12.0,0.,12.0,0.,12.0,0.,12.0
1979-08-01 12:56:49.990 ,5,0,0.,12.0,0.,12.0,0.,12.0,0.,12.0
1979-08-01 12:57:01.990 ,5,0,,0,,0,,0,,0
1979-08-01 12:57:13.990 ,4,0,0.,12.0,0.,12.0,0.,12.0,0.,12.0
1979-08-01 12:57:25.990 ,4,0,0.,12.0,0.,12.0,0.,12.0,0.,12.0
1979-08-01 12:57:37.990 ,3,1,0.,12.0,0.,12.0,0.,12.0,0.,12.0
1979-08-01 12:57:49.990 ,3,1,0.,12.0,0.,12.0,0.,12.0,0.,12.0
1979-08-01 12:58:01.990 ,3,0,0.,12.0,0.,12.0,0.,12.0,0.,12.0
1979-08-01 12:58:13.990 ,3,0,0.,12.0,0.,12.0,0.,12.0,0.,12.0
1979-08-01 12:59:13.990 ,0,0,0.,12.0,0.,12.0,0.,12.0,0.,12.0
1979-08-01 12:59:25.990 ,0,0,0.,12.0,0.,12.0,0.,12.0,0.,12.0
1979-08-01 12:59:37.990 ,0,0,0.,12.0,0.,12.0,0.,12.0,0.,12.0
1979-08-01 12:59:49.990 ,0,0,0.,12.0,0.,12.0,0.,12.0,0.,12.0
1979-08-01 13:00:01.990 ,0,1,0.,12.0,0.,12.0,0.,12.0,0.,12.0
1979-08-01 13:00:13.990 ,0,1,0.,12.0,0.,12.0,0.,12.0,0.,12.0
1979-08-01 13:00:25.990 ,0,0,0.,12.0,0.,12.0,0.,12.0,0.,12.0
1979-08-01 13:00:37.990 ,0,0,0.,12.0,0.,12.0,0.,12.0,0.,12.0
1979-08-01 13:00:49.990 ,0,1,0.,12.0,0.,12.0,0.,12.0,0.,12.0
1979-08-01 13:01:01.990 ,0,1,0.,12.0,0.,12.0,0.,12.0,0.,12.0
1979-08-01 13:01:13.990 ,0,0,0.,12.0,0.,12.0,0.,12.0,0.,12.0
1979-08-01 13:01:25.990 ,0,0,0.,12.0,0.,12.0,0.,12.0,0.,12.0
1979-08-01 13:01:37.990 ,1,1,0.,12.0,0.,12.0,0.,12.0,0.,12.0
1979-08-01 13:01:49.990 ,1,1,0.,12.0,0.,12.0,0.,12.0,0.,12.0
1979-08-01 13:02:01.990 ,1,0,0.,12.0,0.,12.0,0.,12.0,0.,12.0
1979-08-01 13:02:13.990 ,1,0,0.,12.0,0.,12.0,0.,12.0,0.,12.0
1979-08-01 13:02:25.990 ,2,1,0.,12.0,0.,12.0,0.,12.0,0.,12.0
1979-08-01 13:02:37.990 ,2,1,0.,12.0,0.,12.0,0.,12.0,0.,12.0
1979-08-01 13:02:49.990 ,2,0,0.,12.0,0.,12.0,0.,12.0,0.,12.0
1979-08-01 13:03:01.990 ,2,0,0.,12.0,0.,12.0,0.,12.0,0.,12.0
1979-08-01 13:03:13.990 ,0,0,0.,12.0,0.,12.0,0.,12.0,0.,12.0
1979-08-01 13:03:25.990 ,0,0,0.,12.0,0.,12.0,0.,12.0,0.,12.0
1979-08-01 13:03:37.990 ,0,0,0.,12.0,0.,12.0,0.,12.0,0.,12.0
1979-08-01 13:03:49.990 ,0,0,0.,12.0,0.,12.0,0.,12.0,0.,12.0
1979-08-01 13:04:01.990 ,4,1,0.,12.0,0.,12.0,0.,12.0,0.,12.0
1979-08-01 13:04:13.990 ,4,1,0.,12.0,0.,12.0,0.,12.0,0.,12.0
1979-08-01 13:04:25.990 ,4,0,0.,12.0,0.,12.0,0.,12.0,0.,12.0
1979-08-01 13:04:37.990 ,4,0,0.,12.0,0.,12.0,0.,12.0,0.,12.0
1979-08-01 13:04:49.990 ,5,1,0.,12.0,0.,12.0,0.,12.0,0.,12.0
1979-08-01 13:05:01.990 ,5,1,0.,12.0,0.,12.0,0.,12.0,0.,12.0
1979-08-01 13:05:13.990 ,5,0,0.,12.0,0.,12.0,0.,12.0,0.,12.0
1979-08-01 13:05:25.990 ,5,0,0.,12.0,0.,12.0,0.,12.0,0.,12.0
1979-08-01 13:05:37.990 ,0,0,0.,12.0,0.,12.0,0.,12.0,0.,12.0
1979-08-01 13:05:49.990 ,0,0,,0,,0,,0,,0
1979-08-01 13:06:01.990 ,0,0,,0,,0,,0,,0
1979-08-01 13:06:13.990 ,0,0,,0,,0,,0,,0
1979-08-01 13:06:25.990 ,7,0,0.,12.0,0.,12.0,0.,12.0,0.,12.0
1979-08-01 13:06:37.990 ,7,0,0.,12.0,0.,12.0,0.,12.0,0.,12.0
1979-08-01 13:06:49.990 ,7,0,0.,12.0,0.,12.0,0.,12.0,0.,12.0
1979-08-01 13:07:01.990 ,7,0,0.,12.0,0.,12.0,0.,12.0,0.,12.0
1979-08-01 13:07:13.990 ,4,1,0.,12.0,0.,12.0,0.,12.0,0.,12.0
1979-08-01 13:07:25.990 ,4,1,0.,12.0,0.,12.0,0.,12.0,0.,12.0
1979-08-01 13:07:37.990 ,0,1,0.,12.0,0.,12.0,0.,12.0,0.,12.0
1979-08-01 13:07:49.990 ,0,1,0.,12.0,0.,12.0,0.,12.0,0.,12.0
1979-08-01 13:09:49.990 ,0,0,,0,,0,,0,,0
1979-08-01 13:10:01.990 ,0,0,0.,12.0,0.,12.0,0.,12.0,0.,12.0
1979-08-01 13:10:01.990 ,7,1,0.,12.0,0.,12.0,0.,12.0,0.,12.0
1979-08-01 13:10:13.990 ,7,1,0.,12.0,0.,12.0,0.,12.0,0.,12.0
1979-08-01 13:10:25.990 ,4,1,,0,,0,,0,,0
1979-08-01 13:10:37.990 ,4,1,0.,12.0,0.,12.0,0.,12.0,0.,12.0
1979-08-01 13:10:49.990 ,2,1,0.,12.0,0.,12.0,0.,12.0,0.,12.0
1979-08-01 13:11:01.990 ,2,1,,0,,0,,0,,0
1979-08-01 13:11:13.990 ,3,1,0.,12.0,0.,12.0,0.,12.0,0.,12.0
1979-08-01 13:11:25.990 ,3,1,0.,12.0,0.,12.0,0.,12.0,0.,12.0
1979-08-01 13:11:37.990 ,0,0,0.,12.0,0.,12.0,0.,12.0,0.,12.0
1979-08-01 13:11:49.990 ,0,0,0.,12.0,0.,12.0,0.,12.0,0.,12.0
1979-08-01 13:12:03.190 ,4,1,0.,12.0,0.,12.0,0.,12.0,0.,12.0
1979-08-01 13:12:15.190 ,4,1,0.,12.0,0.,12.0,0.,12.0,0.,12.0
1979-08-01 13:12:25.990 ,0,1,0.,12.0,0.,12.0,0.,12.0,0.,12.0
1979-08-01 13:12:37.990 ,0,1,0.,12.0,0.,12.0,0.,12.0,0.,12.0
1979-08-01 13:12:49.990 ,3,1,0.,12.0,0.,12.0,0.,12.0,0.,12.0
1979-08-01 13:13:01.990 ,3,1,0.,12.0,0.,12.0,0.,12.0,0.,12.0
1979-08-01 13:13:13.990 ,7,1,0.,12.0,0.,12.0,0.,12.0,0.,12.0
1979-08-01 13:13:25.990 ,7,1,0.,12.0,0.,12.0,0.,12.0,0.,12.0
1979-08-01 13:13:37.990 ,4,1,,0,,0,,0,,0
1979-08-01 13:13:49.990 ,4,1,0.,12.0,0.,12.0,0.,12.0,0.,12.0
1979-08-01 13:14:01.990 ,0,1,0.,12.0,0.,12.0,0.,12.0,0.,12.0
1979-08-01 13:14:13.990 ,0,1,0.,12.0,0.,12.0,0.,12.0,0.,12.0
1979-08-01 13:14:25.990 ,3,1,0.,12.0,0.,12.0,0.,12.0,0.,12.0
1979-08-01 13:14:37.990 ,3,1,0.,12.0,0.,12.0,0.,12.0,0.,12.0
1979-08-01 13:14:49.990 ,7,1,0.,12.0,0.,12.0,0.,12.0,0.,12.0
1979-08-01 13:15:01.990 ,7,1,0.,12.0,0.,12.0,0.,12.0,0.,12.0
1979-08-01 13:15:13.990 ,4,1,0.,12.0,0.,12.0,0.,12.0,0.,12.0
1979-08-01 13:15:25.990 ,4,1,0.,12.0,0.,12.0,0.,12.0,0.,12.0
1979-08-01 13:15:37.990 ,0,1,0.,12.0,0.,12.0,0.,12.0,0.,12.0
1979-08-01 13:15:49.990 ,0,1,0.,12.0,0.,12.0,0.,12.0,0.,12.0
1979-08-01 13:16:01.990 ,3,1,0.,12.0,0.,12.0,0.,12.0,0.,12.0
1979-08-01 13:16:13.990 ,3,1,0.,12.0,0.,12.0,0.,12.0,0.,12.0
1979-08-01 13:16:25.990 ,7,1,0.,12.0,0.,12.0,0.,12.0,0.,12.0
1979-08-01 13:16:37.990 ,7,1,0.,12.0,0.,12.0,0.,12.0,0.,12.0
1979-08-01 13:16:49.990 ,4,1,0.,12.0,0.,12.0,0.,12.0,0.,12.0
1979-08-01 13:17:01.990 ,4,1,0.,12.0,0.,12.0,0.,12.0,0.,12.0
1979-08-01 13:17:13.990 ,0,1,0.,12.0,0.,12.0,0.,12.0,0.,12.0
1979-08-01 13:17:25.990 ,0,1,0.,12.0,0.,12.0,0.,12.0,0.,12.0
1979-08-01 13:17:37.990 ,0,0,0.,12.0,0.,12.0,0.,12.0,0.,12.0
1979-08-01 13:17:49.990 ,0,0,0.,12.0,0.,12.0,0.,12.0,0.,12.0
1979-08-01 13:18:01.990 ,0,0,0.,12.0,0.,12.0,0.,12.0,0.,12.0
1979-08-01 13:18:13.990 ,0,0,0.,12.0,0.,12.0,0.,12.0,0.,12.0
1979-08-01 13:18:25.990 ,5,1,0.,12.0,0.,12.0,0.,12.0,0.,12.0
1979-08-01 13:18:37.990 ,5,1,0.,12.0,0.,12.0,0.,12.0,0.,12.0
1979-08-01 13:18:49.990 ,5,0,0.,12.0,0.,12.0,0.,12.0,0.,12.0
1979-08-01 13:19:01.990 ,5,0,0.,12.0,0.,12.0,0.,12.0,0.,12.0
1979-08-01 13:19:13.990 ,4,1,0.,12.0,0.,12.0,0.,12.0,0.,12.0
1979-08-01 13:19:25.990 ,4,1,0.,12.0,0.,12.0,0.,12.0,0.,12.0
1979-08-01 13:19:37.990 ,4,0,0.,12.0,0.,12.0,0.,12.0,0.,12.0
1979-08-01 13:19:49.990 ,4,0,0.,12.0,0.,12.0,0.,12.0,0.,12.0
1979-08-01 13:20:01.990 ,3,1,0.,12.0,0.,12.0,0.,12.0,0.,12.0
1979-08-01 13:20:13.990 ,3,1,0.,12.0,0.,12.0,0.,12.0,0.,12.0
1979-08-01 13:20:25.990 ,3,0,0.,12.0,0.,12.0,0.,12.0,0.,12.0
1979-08-01 13:20:37.990 ,3,0,0.,12.0,0.,12.0,0.,12.0,0.,12.0
1979-08-01 13:20:49.990 ,2,1,0.,12.0,0.,12.0,0.,12.0,0.,12.0
1979-08-01 13:21:01.990 ,2,1,0.,12.0,0.,12.0,0.,12.0,0.,12.0
1979-08-01 13:21:13.990 ,2,0,0.,12.0,0.,12.0,0.,12.0,0.,12.0
1979-08-01 13:21:25.990 ,2,0,0.,12.0,0.,12.0,0.,12.0,0.,12.0
1979-08-01 13:21:37.990 ,1,1,0.,12.0,0.,12.0,0.,12.0,0.,12.0
1979-08-01 13:21:49.990 ,1,1,0.,12.0,0.,12.0,0.,12.0,0.,12.0
1979-08-01 13:22:01.990 ,1,0,0.,12.0,0.,12.0,0.,12.0,0.,12.0
1979-08-01 13:22:13.990 ,1,0,0.,12.0,0.,12.0,0.,12.0,0.,12.0
1979-08-01 13:22:25.990 ,0,1,0.,12.0,0.,12.0,0.,12.0,0.,12.0
1979-08-01 13:22:37.990 ,0,1,0.,12.0,0.,12.0,0.,12.0,0.,12.0
1979-08-01 13:22:49.990 ,0,0,0.,12.0,0.,12.0,0.,12.0,0.,12.0
1979-08-01 13:23:01.990 ,0,0,0.,12.0,0.,12.0,0.,12.0,0.,12.0
1979-08-01 13:24:01.990 ,0,0,0.,12.0,0.,12.0,0.,12.0,0.,12.0
1979-08-01 13:24:13.990 ,0,0,0.,12.0,0.,12.0,0.,12.0,0.,12.0
1979-08-01 13:24:25.990 ,0,0,1.,12.0,0.,12.0,0.,12.0,0.,12.0
1979-08-01 13:24:37.990 ,0,0,0.,12.0,0.,12.0,0.,12.0,0.,12.0
1979-08-01 13:24:49.990 ,2,1,0.,12.0,0.,12.0,0.,12.0,0.,12.0
1979-08-01 13:25:01.990 ,2,1,0.,12.0,0.,12.0,0.,12.0,0.,12.0
1979-08-01 13:25:13.990 ,2,0,0.,12.0,0.,12.0,0.,12.0,0.,12.0
1979-08-01 13:25:25.990 ,2,0,0.,12.0,0.,12.0,0.,12.0,0.,12.0
1979-08-01 13:25:37.990 ,3,1,0.,12.0,0.,12.0,0.,12.0,0.,12.0
1979-08-01 13:25:49.990 ,3,1,0.,12.0,0.,12.0,0.,12.0,0.,12.0
1979-08-01 13:26:01.990 ,3,0,0.,12.0,0.,12.0,0.,12.0,0.,12.0
1979-08-01 13:26:13.990 ,3,0,0.,12.0,0.,12.0,0.,12.0,0.,12.0
1979-08-01 13:26:25.990 ,4,1,0.,12.0,0.,12.0,0.,12.0,0.,12.0
1979-08-01 13:26:37.990 ,4,1,0.,12.0,0.,12.0,0.,12.0,0.,12.0
1979-08-01 13:26:49.990 ,4,0,0.,12.0,0.,12.0,0.,12.0,0.,12.0
1979-08-01 13:27:01.990 ,4,0,0.,12.0,0.,12.0,0.,12.0,0.,12.0
1979-08-01 13:27:13.980 ,5,1,0.,12.0,0.,12.0,0.,12.0,0.,12.0
1979-08-01 13:27:25.980 ,5,1,0.,12.0,0.,12.0,0.,12.0,0.,12.0
1979-08-01 13:27:37.980 ,5,0,0.,12.0,0.,12.0,0.,12.0,0.,12.0
1979-08-01 13:27:49.980 ,5,0,0.,12.0,0.,12.0,0.,12.0,0.,12.0
1979-08-01 13:28:01.980 ,6,1,0.,12.0,0.,12.0,0.,12.0,0.,12.0
1979-08-01 13:28:13.980 ,6,1,0.,12.0,0.,12.0,0.,12.0,0.,12.0
1979-08-01 13:28:25.980 ,6,0,0.,12.0,0.,12.0,0.,12.0,0.,12.0
1979-08-01 13:28:37.980 ,6,0,0.,12.0,0.,12.0,0.,12.0,0.,12.0
1979-08-01 13:28:49.980 ,7,1,0.,12.0,0.,12.0,0.,12.0,0.,12.0
1979-08-01 13:29:01.980 ,7,1,0.,12.0,0.,12.0,0.,12.0,0.,12.0
1979-08-01 13:29:13.980 ,7,0,0.,12.0,0.,12.0,0.,12.0,0.,12.0
1979-08-01 13:29:25.980 ,7,0,0.,12.0,0.,12.0,0.,12.0,0.,12.0
1979-08-01 13:29:37.980 ,7,1,0.,12.0,0.,12.0,0.,12.0,0.,12.0
1979-08-01 13:29:49.980 ,7,1,0.,12.0,0.,12.0,0.,12.0,0.,12.0
1979-08-01 13:30:01.980 ,7,0,0.,12.0,0.,12.0,0.,12.0,0.,12.0
1979-08-01 13:30:13.980 ,7,0,0.,12.0,0.,12.0,0.,12.0,0.,12.0
1979-08-01 13:30:25.980 ,6,1,0.,12.0,0.,12.0,0.,12.0,0.,12.0
1979-08-01 13:30:37.980 ,6,1,0.,12.0,0.,12.0,0.,12.0,0.,12.0
1979-08-01 13:30:49.980 ,6,0,0.,12.0,0.,12.0,0.,12.0,0.,12.0
1979-08-01 13:31:01.980 ,6,0,0.,12.0,0.,12.0,0.,12.0,0.,12.0
1979-08-01 13:31:13.980 ,5,1,0.,12.0,0.,12.0,0.,12.0,0.,12.0
1979-08-01 13:31:25.980 ,5,1,0.,12.0,0.,12.0,0.,12.0,0.,12.0
1979-08-01 13:31:37.980 ,5,0,0.,12.0,0.,12.0,0.,12.0,0.,12.0
1979-08-01 13:31:49.980 ,5,0,0.,12.0,0.,12.0,0.,12.0,0.,12.0
1979-08-01 13:32:01.980 ,4,1,0.,12.0,0.,12.0,0.,12.0,0.,12.0
1979-08-01 13:32:13.980 ,4,1,0.,12.0,0.,12.0,0.,12.0,0.,12.0
1979-08-01 13:32:25.980 ,4,0,0.,12.0,0.,12.0,0.,12.0,0.,12.0
1979-08-01 13:32:37.980 ,4,0,0.,12.0,0.,12.0,0.,12.0,0.,12.0
1979-08-01 13:32:49.980 ,3,1,0.,12.0,0.,12.0,0.,12.0,0.,12.0
1979-08-01 13:33:01.980 ,3,1,0.,12.0,0.,12.0,0.,12.0,0.,12.0
1979-08-01 13:33:13.980 ,3,0,0.,12.0,0.,12.0,0.,12.0,0.,12.0
1979-08-01 13:33:25.980 ,3,0,0.,12.0,0.,12.0,0.,12.0,0.,12.0
1979-08-01 13:33:37.980 ,2,1,0.,12.0,0.,12.0,0.,12.0,0.,12.0
1979-08-01 13:33:49.980 ,2,1,0.,12.0,0.,12.0,0.,12.0,0.,12.0
1979-08-01 13:34:01.980 ,2,0,0.,12.0,0.,12.0,0.,12.0,0.,12.0
1979-08-01 13:34:13.990 ,2,0,0.,12.0,0.,12.0,0.,12.0,0.,12.0
1979-08-01 13:34:25.990 ,1,1,0.,12.0,0.,12.0,0.,12.0,1.,12.0
1979-08-01 13:34:37.990 ,1,1,0.,12.0,0.,12.0,0.,12.0,0.,12.0
1979-08-01 13:34:49.990 ,1,0,0.,12.0,0.,12.0,0.,12.0,0.,12.0
1979-08-01 13:35:01.990 ,1,0,0.,12.0,0.,12.0,0.,12.0,0.,12.0
1979-08-01 13:35:13.990 ,0,1,0.,12.0,0.,12.0,0.,12.0,0.,12.0
1979-08-01 13:35:25.990 ,0,1,0.,12.0,0.,12.0,0.,12.0,0.,12.0
1979-08-01 13:35:37.990 ,0,0,0.,12.0,0.,12.0,0.,12.0,0.,12.0